Weather History for Middletown, OH

Change the Weather History Date:

Monday, April 22, 2013

  Actual Average (KDAY) Record (KDAY)
Temperature  
Mean Temperature 50 °F 54 °F  
Max Temperature 67 °F 64 °F 86 °F (1985)
Min Temperature 32 °F 44 °F 28 °F (1986)
Degree Days  
Heating Degree Days 16 12  
Month to date heating degree days 331  
Since 1 July heating degree days 5370  
Cooling Degree Days 0 1  
Month to date cooling degree days 2  
Year to date cooling degree days 2  
Moisture  
Dew Point 38 °F    
Average Humidity 67    
Maximum Humidity 98    
Minimum Humidity 34    
Precipitation  
Precipitation 0.00 in 0.14 in 1.31 in (2005)
Month to date precipitation 2.96  
Year to date precipitation 11.25  
Snow  
Snow 0.00 in 0.00 in 0.00 in ()
Month to date snowfall 0.6  
Since 1 July snowfall 23.3  
Snow Depth -    
Sea Level Pressure  
Sea Level Pressure 30.27 in    
Wind  
Wind Speed 3 mph (SSE)    
Max Wind Speed 9 mph    
Max Gust Speed 18 mph    
Visibility 10 miles    
Events      
T = Trace of Precipitation, MM = Missing Value Source: NWS Daily Summary

Daily Weather History Graph

Daily Weather History Graph

Search for Another Location

Airport:

Trip Planner

Search our weather history database for the weather conditions in past years. The results will help you decide how hot, cold, wet, or windy it might be!

Date:

Astronomy

Apr. 22, 2013 Rise Set
Actual Time 6:49 AM EDT 8:22 PM EDT
Civil Twilight 6:21 AM EDT 8:51 PM EDT
Nautical Twilight 5:47 AM EDT 9:25 PM EDT
Astronomical Twilight 5:11 AM EDT 10:01 PM EDT
Moon 5:11 PM EDT (4/22) 4:43 AM EDT (4/22)
Length of Visible Light 14h 29m
Length of Day
13h 32m
Waxing Gibbous, 87% of the Moon is Illuminated
Apr 22
Waxing Gibbous
Apr 25
Full
May 2
Last Quarter
May 9
New
May 18
First Quarter

Hourly Weather History & Observations

Time (EDT) Temp. Windchill Dew Point Humidity Pressure Visibility Wind Dir Wind Speed Gust Speed Precip Events Conditions
12:15 AM 40.1 °F 36.1 °F 32.0 °F 73% 30.40 in 10.0 mi NNE 5.8 mph - N/A   Clear
12:35 AM 41.4 °F 38.4 °F 31.8 °F 69% 30.40 in 10.0 mi NNE 4.6 mph - N/A   Clear
12:55 AM 39.2 °F - 32.7 °F 78% 30.40 in 10.0 mi Calm Calm - N/A   Clear
1:15 AM 39.7 °F - 31.5 °F 72% 30.39 in 10.0 mi Calm Calm - N/A   Clear
1:35 AM 37.6 °F 34.0 °F 34.3 °F 88% 30.38 in 10.0 mi North 4.6 mph - N/A   Clear
1:55 AM 37.6 °F 34.0 °F 35.4 °F 92% 30.38 in 10.0 mi North 4.6 mph - N/A   Clear
2:15 AM 37.6 °F 35.1 °F 34.0 °F 87% 30.37 in 10.0 mi NNE 3.5 mph - N/A   Clear
2:35 AM 35.1 °F 32.2 °F 33.3 °F 93% 30.37 in 10.0 mi NNE 3.5 mph - N/A   Clear
2:55 AM 35.1 °F - 33.3 °F 93% 30.36 in 10.0 mi Calm Calm - N/A   Clear
3:15 AM 35.1 °F 32.2 °F 33.3 °F 93% 30.36 in 10.0 mi North 3.5 mph - N/A   Clear
3:35 AM 32.9 °F 28.5 °F 32.2 °F 97% 30.35 in 10.0 mi North 4.6 mph - N/A   Clear
3:55 AM 33.1 °F - 32.4 °F 97% 30.35 in 10.0 mi Calm Calm - N/A   Clear
4:15 AM 32.7 °F - 31.8 °F 96% 30.35 in 10.0 mi Calm Calm - N/A   Clear
4:35 AM 32.5 °F - 31.6 °F 96% 30.34 in 10.0 mi Calm Calm - N/A   Clear
4:55 AM 32.5 °F - 32.0 °F 98% 30.33 in 10.0 mi Calm Calm - N/A   Clear
5:15 AM 32.5 °F - 32.0 °F 98% 30.33 in 10.0 mi Calm Calm - N/A   Clear
5:35 AM 32.5 °F - 32.0 °F 98% 30.33 in 10.0 mi Calm Calm - N/A   Clear
5:55 AM 32.5 °F - 32.0 °F 98% 30.33 in 10.0 mi Calm Calm - N/A   Clear
6:15 AM 35.1 °F - 34.0 °F 96% 30.33 in 10.0 mi Calm Calm - N/A   Clear
6:35 AM 35.1 °F - 33.4 °F 94% 30.33 in 10.0 mi Calm Calm - N/A   Clear
6:55 AM 33.8 °F - 32.5 °F 95% 30.34 in 10.0 mi Calm Calm - N/A   Clear
7:15 AM 35.1 °F - 33.6 °F 94% 30.34 in 10.0 mi Calm Calm - N/A   Clear
7:35 AM 35.1 °F - 33.1 °F 92% 30.35 in 10.0 mi Calm Calm - N/A   Clear
7:55 AM 37.6 °F - 35.2 °F 91% 30.34 in 10.0 mi Calm Calm - N/A   Clear
8:15 AM 38.8 °F - 36.7 °F 92% 30.35 in 10.0 mi Calm Calm - N/A   Clear
8:35 AM 43.2 °F 40.5 °F 34.0 °F 70% 30.34 in 10.0 mi ENE 4.6 mph - N/A   Clear
8:55 AM 45.1 °F 42.8 °F 34.5 °F 66% 30.34 in 10.0 mi ENE 4.6 mph - N/A   Clear
9:15 AM 47.7 °F - 36.5 °F 65% 30.34 in 10.0 mi NNE 3.5 mph - N/A   Clear
9:35 AM 47.7 °F - 35.1 °F 62% 30.33 in 10.0 mi Calm Calm - N/A   Clear
9:55 AM 50.2 °F - 36.9 °F 60% 30.33 in 10.0 mi Calm Calm - N/A   Clear
10:15 AM 52.7 °F - 37.2 °F 56% 30.33 in 10.0 mi SE 4.6 mph - N/A   Clear
10:35 AM 55.4 °F - 38.3 °F 53% 30.33 in 10.0 mi SSW 4.6 mph - N/A   Clear
10:55 AM 55.4 °F - 37.9 °F 52% 30.33 in 10.0 mi SSE 4.6 mph - N/A   Clear
11:15 AM 56.1 °F - 39.2 °F 53% 30.33 in 10.0 mi SE 3.5 mph - N/A   Clear
11:35 AM 57.7 °F - 39.9 °F 51% 30.33 in 10.0 mi SW 3.5 mph - N/A   Clear
11:55 AM 57.7 °F - 38.5 °F 49% 30.32 in 10.0 mi Calm Calm - N/A   Clear
12:15 PM 59.0 °F - 39.2 °F 48% 30.32 in 10.0 mi SW 3.5 mph - N/A   Clear
12:35 PM 60.1 °F - 40.1 °F 48% 30.31 in 10.0 mi Calm Calm - N/A   Clear
12:55 PM 61.0 °F - 40.8 °F 47% 30.30 in 10.0 mi NNE 3.5 mph - N/A   Clear
1:15 PM 62.4 °F - 40.5 °F 44% 30.29 in 10.0 mi Calm Calm - N/A   Clear
1:35 PM 63.7 °F - 41.0 °F 43% 30.28 in 10.0 mi North 3.5 mph - N/A   Clear
1:55 PM 65.5 °F - 40.3 °F 40% 30.27 in 10.0 mi Calm Calm - N/A   Clear
2:15 PM 67.6 °F - 43.5 °F 42% 30.25 in 10.0 mi SSE 3.5 mph - N/A   Clear
2:35 PM 67.6 °F - 41.4 °F 38% 30.25 in 10.0 mi SSW 5.8 mph - N/A   Clear
2:55 PM 67.6 °F - 42.1 °F 39% 30.24 in 10.0 mi South 6.9 mph - N/A   Clear
3:15 PM 67.6 °F - 40.5 °F 37% 30.23 in 10.0 mi SW 5.8 mph - N/A   Clear
3:35 PM 67.6 °F - 41.7 °F 39% 30.22 in 10.0 mi SSW 9.2 mph 18.4 mph N/A   Clear
3:55 PM 67.6 °F - 42.3 °F 40% 30.21 in 10.0 mi SE 6.9 mph - N/A   Clear
4:15 PM 67.6 °F - 40.8 °F 38% 30.20 in 10.0 mi Calm Calm - N/A   Clear
4:35 PM 67.6 °F - 40.6 °F 37% 30.19 in 10.0 mi South 4.6 mph - N/A   Clear
4:55 PM 67.6 °F - 39.4 °F 36% 30.19 in 10.0 mi Calm Calm - N/A   Clear
5:15 PM 67.6 °F - 38.7 °F 35% 30.18 in 10.0 mi East 3.5 mph - N/A   Clear
5:35 PM 67.6 °F - 39.6 °F 36% 30.18 in 10.0 mi Calm Calm - N/A   Clear
5:55 PM 67.8 °F - 40.1 °F 36% 30.17 in 10.0 mi SSW 9.2 mph - N/A   Clear
6:15 PM 67.6 °F - 39.2 °F 35% 30.17 in 10.0 mi SSW 6.9 mph - N/A   Clear
6:35 PM 67.6 °F - 38.3 °F 34% 30.17 in 10.0 mi WSW 4.6 mph - N/A   Clear
6:55 PM 67.6 °F - 38.8 °F 35% 30.16 in 10.0 mi SSE 4.6 mph 9.2 mph N/A   Clear
7:15 PM 67.6 °F - 42.1 °F 39% 30.16 in 10.0 mi SW 4.6 mph - N/A   Clear
7:35 PM 67.6 °F - 39.9 °F 36% 30.16 in 10.0 mi SSW 4.6 mph - N/A   Clear
7:55 PM 66.6 °F - 42.6 °F 42% 30.15 in 10.0 mi Calm Calm - N/A   Clear
8:15 PM 62.6 °F - 41.0 °F 45% 30.15 in 10.0 mi Calm Calm - N/A   Clear
8:35 PM 58.5 °F - 44.8 °F 60% 30.15 in 10.0 mi Calm Calm - N/A   Clear
8:55 PM 56.7 °F - 46.2 °F 68% 30.16 in 10.0 mi Calm Calm - N/A   Clear
9:15 PM 52.7 °F - 47.1 °F 81% 30.16 in 10.0 mi Calm Calm - N/A   Clear
9:35 PM 52.7 °F - 47.3 °F 82% 30.16 in 10.0 mi Calm Calm - N/A   Clear
9:55 PM 52.7 °F - 47.1 °F 81% 30.17 in 10.0 mi Calm Calm - N/A   Clear
10:15 PM 48.6 °F - 45.1 °F 88% 30.17 in 10.0 mi Calm Calm - N/A   Clear
10:35 PM 50.2 °F - 44.8 °F 82% 30.16 in 10.0 mi Calm Calm - N/A   Clear
10:55 PM 47.7 °F - 44.6 °F 89% 30.17 in 10.0 mi Calm Calm - N/A   Clear
11:15 PM 47.7 °F - 44.4 °F 89% 30.16 in 10.0 mi North 3.5 mph - N/A   Clear
11:35 PM 47.7 °F - 45.3 °F 92% 30.17 in 10.0 mi Calm Calm - N/A   Clear
11:55 PM 47.7 °F - 46.4 °F 95% 30.17 in 10.0 mi Calm Calm - N/A   Clear